EW0610 Weather Reports


Display with metric or nautical units.
time (UTC)temp
F
wind
direction
speed
MPH
gust
MPH
rain 1hr
in
rain 24hr
in
rain mn
in
humidity
%
barometer
mb
20210117001137 51 351 0.0 0.0 0.00 0.00 0.00 26 1015.6
20210117000635 52 351 0.0 0.0 0.00 0.00 0.00 26 1015.5
20210117000132 53 351 0.0 0.0 0.00 0.00 0.00 21 1015.6
20210116235632 53 351 0.0 0.0 0.00 0.00 0.00 20 1015.6
20210116235128 53 351 0.0 0.0 0.00 0.00 0.00 21 1015.7
20210116234636 54 351 0.0 0.0 0.00 0.00 0.00 20 1015.7
20210116234149 54 351 0.0 0.0 0.00 0.00 0.00 19 1015.7
20210116233632 54 351 0.0 0.0 0.00 0.00 0.00 21 1015.8
20210116233139 54 351 0.0 0.0 0.00 0.00 0.00 20 1015.9
20210116232629 55 351 0.0 0.0 0.00 0.00 0.00 20 1015.7
20210116232141 55 351 0.0 0.0 0.00 0.00 0.00 19 1015.8
20210116231629 55 339 0.0 0.0 0.00 0.00 0.00 19 1015.8
20210116231137 55 338 0.0 0.0 0.00 0.00 0.00 19 1015.7
20210116230628 55 331 0.0 0.0 0.00 0.00 0.00 18 1015.7
20210116230143 55 328 0.0 0.0 0.00 0.00 0.00 18 1015.8
20210116225634 55 324 0.0 0.0 0.00 0.00 0.00 19 1015.9
20210116225143 55 318 0.0 0.0 0.00 0.00 0.00 18 1015.9
20210116224647 55 314 0.0 0.0 0.00 0.00 0.00 18 1015.9
20210116224135 56 328 0.0 1.0 0.00 0.00 0.00 17 1016.0
20210116223659 56 301 0.0 1.0 0.00 0.00 0.00 17 1016.0
20210116223131 56 310 0.0 1.0 0.00 0.00 0.00 17 1016.0
20210116222637 56 312 0.0 1.0 0.00 0.00 0.00 17 1016.0
20210116222147 57 313 0.0 1.0 0.00 0.00 0.00 16 1016.1
20210116221630 58 306 0.0 0.0 0.00 0.00 0.00 15 1016.1
20210116221138 57 301 0.0 0.0 0.00 0.00 0.00 16 1016.0
20210116220640 57 303 0.0 7.0 0.00 0.00 0.00 16 1016.0
20210116220137 57 298 7.0 7.0 0.00 0.00 0.00 16 1016.0
20210116215645 57 304 3.0 3.0 0.00 0.00 0.00 15 1016.0
20210116215131 57 324 0.0 1.0 0.00 0.00 0.00 16 1015.9
20210116214700 57 303 0.0 1.0 0.00 0.00 0.00 15 1015.8
20210116214133 57 44 0.0 0.0 0.00 0.00 0.00 16 1015.8
20210116213626 58 295 0.0 8.0 0.00 0.00 0.00 16 1015.8
20210116213127 57 285 8.0 8.0 0.00 0.00 0.00 16 1015.7
20210116212636 57 287 7.0 7.0 0.00 0.00 0.00 17 1015.7
20210116212145 57 292 7.0 7.0 0.00 0.00 0.00 17 1015.7
20210116211650 57 308 0.0 11.0 0.00 0.00 0.00 17 1015.8
20210116211135 57 307 2.0 11.0 0.00 0.00 0.00 16 1015.8
20210116210654 57 312 0.0 0.0 0.00 0.00 0.00 17 1015.8
20210116210133 56 312 0.0 5.0 0.00 0.00 0.00 17 1015.9
20210116205700 57 306 5.0 5.0 0.00 0.00 0.00 18 1015.8
20210116205130 56 304 0.0 0.0 0.00 0.00 0.00 18 1015.9
20210116204640 55 264 0.0 2.0 0.00 0.00 0.00 18 1016.0
20210116204137 55 324 0.0 5.0 0.00 0.00 0.00 18 1015.9
20210116203644 56 322 0.0 5.0 0.00 0.00 0.00 17 1016.0
20210116203134 56 289 3.0 3.0 0.00 0.00 0.00 18 1016.0
20210116202645 56 273 2.0 4.0 0.00 0.00 0.00 19 1016.1
20210116202132 56 279 4.0 8.0 0.00 0.00 0.00 18 1016.1
20210116201634 56 302 8.0 8.0 0.00 0.00 0.00 18 1015.9
20210116201147 55 256 0.0 3.0 0.00 0.00 0.00 18 1015.9
20210116200650 55 294 3.0 3.0 0.00 0.00 0.00 19 1016.0
20210116200208 55 274 1.0 1.0 0.00 0.00 0.00 20 1016.1
20210116195642 55 306 0.0 10.0 0.00 0.00 0.00 19 1016.2
20210116195136 55 256 10.0 10.0 0.00 0.00 0.00 20 1016.2
20210116194724 55 252 0.0 4.0 0.00 0.00 0.00 18 1016.2
20210116194141 54 305 2.0 2.0 0.00 0.00 0.00 20 1016.2
20210116193657 54 345 0.0 7.0 0.00 0.00 0.00 20 1016.2
20210116193140 54 241 0.0 7.0 0.00 0.00 0.00 19 1016.4
20210116192652 54 299 1.0 7.0 0.00 0.00 0.00 19 1016.6
20210116192144 54 297 0.0 12.0 0.00 0.00 0.00 20 1016.7
20210116191645 54 302 12.0 12.0 0.00 0.00 0.00 20 1016.9
20210116191137 53 303 0.0 0.0 0.00 0.00 0.00 21 1017.1
20210116190638 53 293 0.0 3.0 0.00 0.00 0.00 21 1017.2
20210116190155 53 328 0.0 12.0 0.00 0.00 0.00 22 1017.3
20210116185754 53 284 12.0 12.0 0.00 0.00 0.00 22 1017.4
20210116185144 52 293 1.0 11.0 0.00 0.00 0.00 24 1017.6
20210116184639 53 283 11.0 11.0 0.00 0.00 0.00 24 1017.8
20210116184143 52 306 1.0 2.0 0.00 0.00 0.00 24 1018.0
20210116183644 52 312 2.0 10.0 0.00 0.00 0.00 25 1018.2
20210116183140 52 282 0.0 11.0 0.00 0.00 0.00 26 1018.4
20210116182931 51 276 4.0 12.0 0.00 0.00 0.00 25 1018.4
20210116182529 51 283 0.0 12.0 0.00 0.00 0.00 25 1018.5
20210116181957 51 239 10.0 10.0 0.00 0.00 0.00 27 1018.6
20210116181358 51 231 0.0 10.0 0.00 0.00 0.00 25 1018.9
20210116180638 51 290 0.0 10.0 0.00 0.00 0.00 27 1019.0
20210116180143 50 297 4.0 10.0 0.00 0.00 0.00 26 1019.1
20210116175632 51 287 0.0 7.0 0.00 0.00 0.00 26 1019.2
20210116175143 51 248 4.0 4.0 0.00 0.00 0.00 26 1019.4
20210116174630 50 287 0.0 4.0 0.00 0.00 0.00 27 1019.7
20210116174139 50 293 0.0 0.0 0.00 0.00 0.00 28 1019.8
20210116173633 49 208 0.0 0.0 0.00 0.00 0.00 27 1019.8
20210116173145 48 227 0.0 0.0 0.00 0.00 0.00 29 1019.8
20210116172636 48 269 0.0 0.0 0.00 0.00 0.00 28 1019.9
20210116172137 48 295 0.0 0.0 0.00 0.00 0.00 29 1019.9
20210116171647 48 276 0.0 0.0 0.00 0.00 0.00 30 1020.1
20210116171154 46 295 0.0 0.0 0.00 0.00 0.00 31 1020.1
20210116170640 46 281 0.0 0.0 0.00 0.00 0.00 31 1020.0
20210116170132 46 291 0.0 0.0 0.00 0.00 0.00 30 1019.9
20210116165646 46 283 0.0 0.0 0.00 0.00 0.00 31 1020.0
20210116165144 46 245 0.0 0.0 0.00 0.00 0.00 32 1020.0
20210116164629 46 337 0.0 0.0 0.00 0.00 0.00 32 1020.0
20210116164136 46 313 0.0 0.0 0.00 0.00 0.00 33 1020.0
20210116163658 44 352 0.0 0.0 0.00 0.00 0.00 33 1019.8
20210116163136 44 301 0.0 0.0 0.00 0.00 0.00 33 1019.9
20210116162632 44 8 0.0 0.0 0.00 0.00 0.00 33 1019.9
20210116162146 44 341 0.0 0.0 0.00 0.00 0.00 34 1020.1
20210116161636 43 6 0.0 0.0 0.00 0.00 0.00 34 1020.1
20210116161141 43 298 0.0 0.0 0.00 0.00 0.00 35 1020.3
20210116160632 42 306 0.0 3.0 0.00 0.00 0.00 35 1020.2
20210116160154 42 325 3.0 3.0 0.00 0.00 0.00 35 1020.2
20210116155639 42 293 2.0 6.0 0.00 0.00 0.00 36 1020.3
20210116155131 41 290 0.0 6.0 0.00 0.00 0.00 36 1020.4
20210116154640 41 295 0.0 0.0 0.00 0.00 0.00 37 1020.4
20210116154146 40 318 0.0 1.0 0.00 0.00 0.00 37 1020.4
20210116153636 40 297 0.0 1.0 0.00 0.00 0.00 37 1020.4
20210116153129 40 295 0.0 1.0 0.00 0.00 0.00 37 1020.5
20210116152644 40 272 1.0 1.0 0.00 0.00 0.00 38 1020.4
20210116152139 40 287 0.0 0.0 0.00 0.00 0.00 39 1020.5
20210116151628 39 294 0.0 0.0 0.00 0.00 0.00 41 1020.5
20210116151139 39 274 0.0 1.0 0.00 0.00 0.00 42 1020.5
20210116150645 38 291 1.0 1.0 0.00 0.00 0.00 44 1020.4
20210116150141 37 268 0.0 0.0 0.00 0.00 0.00 45 1020.3
20210116145632 37 268 0.0 0.0 0.00 0.00 0.00 46 1020.3
20210116145143 36 268 0.0 0.0 0.00 0.00 0.00 47 1020.2
20210116144632 35 285 0.0 0.0 0.00 0.00 0.00 47 1020.1
20210116144145 35 279 0.0 0.0 0.00 0.00 0.00 48 1020.2
20210116143639 34 247 0.0 0.0 0.00 0.00 0.00 48 1020.1
20210116143133 34 239 0.0 0.0 0.00 0.00 0.00 49 1020.2
20210116142643 33 249 0.0 0.0 0.00 0.00 0.00 50 1020.2
20210116142135 32 245 0.0 0.0 0.00 0.00 0.00 51 1020.0
20210116141627 32 245 0.0 0.0 0.00 0.00 0.00 52 1019.8
20210116141300 32 245 0.0 0.0 0.00 0.00 0.00 52 1019.8
20210116140644 31 247 0.0 0.0 0.00 0.00 0.00 53 1019.8
20210116140334 31 248 0.0 0.0 0.00 0.00 0.00 53 1019.9
20210116135739 31 250 0.0 0.0 0.00 0.00 0.00 53 1019.9
20210116135131 31 247 0.0 0.0 0.00 0.00 0.00 53 1019.8
20210116134641 31 244 0.0 0.0 0.00 0.00 0.00 53 1019.8
20210116134132 31 245 0.0 0.0 0.00 0.00 0.00 53 1019.8
20210116133647 31 244 0.0 0.0 0.00 0.00 0.00 53 1019.8
20210116133136 31 234 0.0 0.0 0.00 0.00 0.00 53 1019.7
20210116132626 31 234 0.0 0.0 0.00 0.00 0.00 53 1019.6
20210116132138 31 234 0.0 0.0 0.00 0.00 0.00 53 1019.6
20210116131634 31 234 0.0 0.0 0.00 0.00 0.00 53 1019.5
20210116131138 31 234 0.0 0.0 0.00 0.00 0.00 53 1020.1
20210116130757 31 234 0.0 0.0 0.00 0.00 0.00 53 1019.3
20210116130154 31 235 0.0 0.0 0.00 0.00 0.00 53 1019.4
20210116125639 31 240 0.0 0.0 0.00 0.00 0.00 52 1019.4
20210116125143 31 241 0.0 0.0 0.00 0.00 0.00 52 1019.2
20210116124626 31 242 0.0 0.0 0.00 0.00 0.00 52 1019.2
20210116124134 32 243 0.0 0.0 0.00 0.00 0.00 52 1019.2
20210116123648 32 243 0.0 0.0 0.00 0.00 0.00 52 1019.2
20210116123149 32 242 0.0 0.0 0.00 0.00 0.00 52 1019.1
20210116122632 32 237 0.0 0.0 0.00 0.00 0.00 51 1018.9
20210116122146 32 237 0.0 0.0 0.00 0.00 0.00 51 1018.9
20210116121701 32 237 0.0 0.0 0.00 0.00 0.00 52 1019.0
20210116121131 32 243 0.0 0.0 0.00 0.00 0.00 51 1019.1
20210116120627 32 243 0.0 0.0 0.00 0.00 0.00 52 1019.1
20210116120150 32 243 0.0 0.0 0.00 0.00 0.00 52 1019.1
20210116115643 32 247 0.0 0.0 0.00 0.00 0.00 51 1019.1
20210116115137 32 253 0.0 0.0 0.00 0.00 0.00 51 1019.0
20210116114635 33 253 0.0 0.0 0.00 0.00 0.00 50 1018.9
20210116114130 33 241 0.0 0.0 0.00 0.00 0.00 50 1018.7
20210116113629 33 239 0.0 0.0 0.00 0.00 0.00 50 1018.7
20210116113126 33 243 0.0 0.0 0.00 0.00 0.00 50 1018.7
20210116112642 33 231 0.0 0.0 0.00 0.00 0.00 51 1018.5
20210116112136 33 231 0.0 0.0 0.00 0.00 0.00 50 1018.4
20210116111630 33 233 0.0 0.0 0.00 0.00 0.00 51 1018.4
20210116111128 32 247 0.0 0.0 0.00 0.00 0.00 52 1018.4
20210116110641 32 247 0.0 0.0 0.00 0.00 0.00 51 1018.4
20210116110151 33 247 0.0 0.0 0.00 0.00 0.00 50 1018.3
20210116105641 33 247 0.0 3.0 0.00 0.00 0.00 49 1018.4
20210116105130 34 247 0.0 3.0 0.00 0.00 0.00 48 1018.5
20210116104629 34 268 0.0 0.0 0.00 0.00 0.00 48 1018.2
20210116104141 34 251 0.0 0.0 0.00 0.00 0.00 48 1018.3
20210116103633 33 248 0.0 0.0 0.00 0.00 0.00 48 1018.3
20210116103125 34 251 0.0 0.0 0.00 0.00 0.00 48 1018.4
20210116102624 34 249 0.0 0.0 0.00 0.00 0.00 47 1018.4
20210116102152 34 234 0.0 0.0 0.00 0.00 0.00 47 1018.4
20210116101637 34 251 0.0 0.0 0.00 0.00 0.00 48 1018.3
20210116101127 34 253 0.0 0.0 0.00 0.00 0.00 47 1018.2
20210116100640 34 253 0.0 0.0 0.00 0.00 0.00 47 1018.1
20210116100136 34 262 0.0 0.0 0.00 0.00 0.00 49 1018.0
20210116095635 33 268 0.0 0.0 0.00 0.00 0.00 50 1018.0
20210116095144 34 268 0.0 0.0 0.00 0.00 0.00 50 1017.9
20210116094637 34 268 0.0 0.0 0.00 0.00 0.00 49 1018.0
20210116094141 34 268 0.0 0.0 0.00 0.00 0.00 47 1018.1
20210116093631 35 268 0.0 0.0 0.00 0.00 0.00 47 1018.2
20210116093128 35 268 0.0 0.0 0.00 0.00 0.00 46 1018.3
20210116092644 35 268 0.0 1.0 0.00 0.00 0.00 46 1018.3
20210116092139 35 268 0.0 4.0 0.00 0.00 0.00 46 1018.2
20210116091635 35 281 0.0 4.0 0.00 0.00 0.00 45 1018.3
20210116091130 36 281 0.0 2.0 0.00 0.00 0.00 45 1018.5
20210116090646 36 277 0.0 2.0 0.00 0.00 0.00 45 1018.7
20210116090140 36 281 0.0 3.0 0.00 0.00 0.00 45 1018.7
20210116085642 36 279 0.0 3.0 0.00 0.00 0.00 44 1018.6
20210116085138 36 268 0.0 0.0 0.00 0.00 0.00 44 1018.6
20210116084631 36 276 0.0 0.0 0.00 0.00 0.00 43 1018.6
20210116084131 37 303 0.0 0.0 0.00 0.00 0.00 42 1018.4
20210116083647 37 303 0.0 1.0 0.00 0.00 0.00 41 1018.1
20210116083148 37 315 0.0 1.0 0.00 0.00 0.00 41 1018.0
20210116082637 38 308 0.0 2.0 0.00 0.00 0.00 41 1018.1
20210116082138 38 295 0.0 3.0 0.00 0.00 0.00 41 1018.1
20210116081636 38 301 0.0 3.0 0.00 0.00 0.00 41 1017.9
20210116081132 38 303 0.0 9.0 0.00 0.00 0.00 41 1017.9
20210116080633 38 294 0.0 9.0 0.00 0.00 0.00 41 1017.9
20210116080130 38 302 0.0 4.0 0.00 0.00 0.00 41 1017.9
20210116075626 37 294 0.0 7.0 0.00 0.00 0.00 42 1017.9
20210116075124 37 296 1.0 9.0 0.00 0.00 0.00 42 1018.0
20210116074647 37 296 2.0 9.0 0.00 0.00 0.00 42 1018.0
20210116074123 37 281 1.0 9.0 0.00 0.00 0.00 43 1017.9
20210116073641 37 301 2.0 9.0 0.00 0.00 0.00 43 1017.9
20210116073137 37 301 0.0 6.0 0.00 0.00 0.00 43 1017.8
20210116072635 37 296 0.0 4.0 0.00 0.00 0.00 42 1017.9
20210116072129 37 289 0.0 4.0 0.00 0.00 0.00 42 1018.0
20210116071627 37 279 0.0 5.0 0.00 0.00 0.00 42 1018.1
20210116071123 37 283 0.0 5.0 0.00 0.00 0.00 42 1018.0
20210116070640 38 282 0.0 4.0 0.00 0.00 0.00 41 1018.1
20210116070148 38 289 0.0 4.0 0.00 0.00 0.00 41 1018.1
20210116065634 38 310 0.0 5.0 0.00 0.00 0.00 40 1018.0
20210116065130 38 153 1.0 5.0 0.00 0.00 0.00 40 1018.1
20210116064629 38 288 1.0 6.0 0.00 0.00 0.00 40 1018.2
20210116064122 38 292 2.0 6.0 0.00 0.00 0.00 40 1017.9
20210116063625 38 295 1.0 7.0 0.00 0.00 0.00 41 1017.9
20210116063129 38 295 0.0 7.0 0.00 0.00 0.00 41 1018.0
20210116062621 38 287 0.0 4.0 0.00 0.00 0.00 41 1018.0
20210116062143 38 153 0.0 6.0 0.00 0.00 0.00 41 1018.0
20210116061639 38 286 0.0 7.0 0.00 0.00 0.00 42 1018.0
20210116061137 38 282 0.0 3.0 0.00 0.00 0.00 42 1018.0
20210116060639 38 283 0.0 5.0 0.00 0.00 0.00 41 1018.0
20210116060132 38 276 0.0 5.0 0.00 0.00 0.00 41 1018.1
20210116055642 38 153 0.0 4.0 0.00 0.00 0.00 41 1018.2
20210116055125 38 268 0.0 4.0 0.00 0.00 0.00 41 1018.2
20210116054632 38 262 0.0 4.0 0.00 0.00 0.00 41 1018.1
20210116054135 38 153 0.0 4.0 0.00 0.00 0.00 41 1018.0
20210116053622 38 153 0.0 2.0 0.00 0.00 0.00 40 1018.0
20210116053127 39 285 0.0 2.0 0.00 0.00 0.00 40 1018.0
20210116052636 39 285 0.0 6.0 0.00 0.00 0.00 39 1018.1
20210116052130 40 293 0.0 9.0 0.00 0.00 0.00 38 1018.1
20210116051636 40 298 1.0 9.0 0.00 0.00 0.00 37 1018.0
20210116051142 40 282 2.0 8.0 0.00 0.00 0.00 37 1017.9
20210116050644 40 299 0.0 10.0 0.00 0.00 0.00 36 1017.8
20210116050139 41 298 3.0 10.0 0.00 0.00 0.00 36 1017.8
20210116045630 41 284 0.0 6.0 0.00 0.00 0.00 36 1017.8
20210116045129 41 271 1.0 12.0 0.00 0.00 0.00 35 1017.9
20210116044637 41 299 2.0 12.0 0.00 0.00 0.00 35 1017.7
20210116044129 41 295 0.0 9.0 0.00 0.00 0.00 36 1017.7
20210116043634 41 294 0.0 9.0 0.00 0.00 0.00 36 1017.7
20210116043143 41 287 0.0 9.0 0.00 0.00 0.00 36 1017.8
20210116042633 41 288 0.0 9.0 0.00 0.00 0.00 36 1017.7
20210116042134 41 285 0.0 7.0 0.00 0.00 0.00 36 1017.7
20210116041636 41 283 0.0 5.0 0.00 0.00 0.00 36 1017.6
20210116041127 40 274 0.0 5.0 0.00 0.00 0.00 37 1017.6
20210116040627 40 279 0.0 1.0 0.00 0.00 0.00 36 1017.7
20210116040134 40 281 0.0 1.0 0.00 0.00 0.00 36 1017.7
20210116035635 40 284 0.0 3.0 0.00 0.00 0.00 36 1017.5
20210116035142 41 287 0.0 3.0 0.00 0.00 0.00 36 1017.4
20210116034632 41 287 0.0 7.0 0.00 0.00 0.00 35 1017.4
20210116034140 41 283 0.0 7.0 0.00 0.00 0.00 35 1017.3
20210116033627 41 282 1.0 7.0 0.00 0.00 0.00 35 1017.3
20210116033133 41 291 0.0 9.0 0.00 0.00 0.00 34 1017.4
20210116032639 42 279 2.0 9.0 0.00 0.00 0.00 34 1017.3
20210116032128 42 277 1.0 6.0 0.00 0.00 0.00 34 1017.2
20210116031636 42 282 1.0 10.0 0.00 0.00 0.00 34 1017.2
20210116031125 42 285 0.0 9.0 0.00 0.00 0.00 33 1017.2
20210116030636 42 281 0.0 9.0 0.00 0.00 0.00 33 1017.1
20210116030130 43 290 1.0 9.0 0.00 0.00 0.00 32 1016.9
20210116025635 43 283 2.0 9.0 0.00 0.00 0.00 32 1016.9
20210116025144 43 295 0.0 9.0 0.00 0.00 0.00 32 1016.9
20210116024633 43 291 1.0 7.0 0.00 0.00 0.00 31 1016.9
20210116024139 43 281 1.0 5.0 0.00 0.00 0.00 31 1016.9
20210116023628 43 289 0.0 5.0 0.00 0.00 0.00 31 1016.8
20210116023140 43 292 0.0 6.0 0.00 0.00 0.00 31 1016.8
20210116022629 44 288 1.0 6.0 0.00 0.00 0.00 30 1016.8
20210116022134 44 296 0.0 4.0 0.00 0.00 0.00 30 1016.6
20210116021645 44 293 0.0 5.0 0.00 0.00 0.00 30 1016.7
20210116021133 44 298 1.0 7.0 0.00 0.00 0.00 29 1016.6
20210116020634 45 291 1.0 7.0 0.00 0.00 0.00 28 1016.7
20210116020150 45 301 0.0 4.0 0.00 0.00 0.00 28 1016.5
20210116015630 45 303 0.0 5.0 0.00 0.00 0.00 27 1016.5
20210116015139 46 299 1.0 10.0 0.00 0.00 0.00 27 1016.5
20210116014639 46 293 2.0 10.0 0.00 0.00 0.00 27 1016.5
20210116014129 46 299 1.0 5.0 0.00 0.00 0.00 26 1016.4
20210116013636 46 310 1.0 5.0 0.00 0.00 0.00 26 1016.5
20210116013129 46 293 0.0 7.0 0.00 0.00 0.00 26 1016.4
20210116012637 46 297 1.0 9.0 0.00 0.00 0.00 26 1016.4
20210116012148 46 303 2.0 10.0 0.00 0.00 0.00 26 1016.4
20210116011635 46 302 3.0 10.0 0.00 0.00 0.00 25 1016.3
20210116011138 47 307 2.0 10.0 0.00 0.00 0.00 25 1016.5
20210116010646 47 308 2.0 11.0 0.00 0.00 0.00 24 1016.5
20210116010134 47 301 2.0 11.0 0.00 0.00 0.00 24 1016.4
20210116005639 47 299 1.0 7.0 0.00 0.00 0.00 24 1016.3
20210116005130 47 297 2.0 7.0 0.00 0.00 0.00 24 1016.2
20210116004648 47 293 2.0 7.0 0.00 0.00 0.00 23 1016.3
20210116004135 48 305 1.0 9.0 0.00 0.00 0.00 23 1016.2
20210116003641 48 301 2.0 9.0 0.00 0.00 0.00 23 1016.2
20210116003143 48 302 1.0 8.0 0.00 0.00 0.00 22 1016.1
20210116002638 49 310 2.0 7.0 0.00 0.00 0.00 22 1016.0
20210116002129 49 325 3.0 12.0 0.00 0.00 0.00 21 1016.0
20210116001631 49 304 2.0 12.0 0.00 0.00 0.00 21 1016.0